This demonstration page uses our WeatherBlox Daily Observations layout. Learn more.

Left ArrowRight Arrow

39.92423, -83.80882

Hourly Observations for June 2, 2022

Temp ( °F °C ) Dew Point ( °F °C ) Humidity (%) Winds ( mph kmh ) Pressure ( in mb ) Visibility ( mi km ) Precip ( " mm )
12:56 am 00:56 Cloudy N/A N/A N/A Calm N/A 10 16 0.00 0.00
1:56 am 01:56 Cloudy N/A N/A N/A W 5 7 N/A 10 16 0.01 0.25
2:30 am 02:30 Cloudy N/A N/A N/A SW 3 6 N/A 9 14 0.00 0.00
2:56 am 02:56 Cloudy N/A N/A N/A WSW 3 6 N/A 8 13 0.00 0.00
3:33 am 03:33 Cloudy N/A N/A N/A S 3 6 N/A 7 11 0.00 0.00
3:40 am 03:40 Cloudy with Haze N/A N/A N/A SSW 5 7 N/A 6 10 0.00 0.00
3:56 am 03:56 Cloudy with Haze N/A N/A N/A SW 3 6 N/A 5 8 0.00 0.00
4:17 am 04:17 Cloudy with Haze N/A N/A N/A WSW 3 6 N/A 5 8 0.00 0.00
4:26 am 04:26 Cloudy with Haze N/A N/A N/A WSW 3 6 N/A 5 8 0.00 0.00
4:56 am 04:56 Cloudy 66 19 N/A N/A SW 5 7 29.85 1011 7 11 0.00 0.00
5:45 am 05:45 Cloudy 66 19 N/A N/A WSW 5 7 29.86 1011 9 14 0.00 0.00
5:56 am 05:56 Cloudy 66 19 N/A N/A SW 5 7 29.85 1011 8 13 0.00 0.00
6:56 am 06:56 Cloudy with Haze 66 19 N/A N/A WNW 8 13 29.85 1011 5 8 0.00 0.00
7:12 am 07:12 Cloudy with Haze 66 19 N/A N/A NW 7 11 29.85 1011 4 6 0.00 0.00
7:37 am 07:37 Cloudy with Haze 66 19 N/A N/A NNW 7 11 29.85 1011 4 6 0.00 0.00
7:56 am 07:56 Cloudy with Haze 66 19 N/A N/A NNW 5 7 29.86 1011 5 8 0.00 0.00
8:56 am 08:56 Cloudy with Light Rain 64 18 N/A N/A W 6 9 29.87 1012 10 16 0.00 0.00
9:12 am 09:12 Cloudy 64 18 64 18 100 100 NW 7 11 29.86 1011 10 16 0.00 0.00
9:56 am 09:56 Cloudy 66 18.9 66 18.9 100 100 NW 7 11 29.86 1011 10 16 0.00 0.00
10:56 am 10:56 Cloudy with Rain 64 17.8 64 17.8 100 100 NW 13 20 29.87 1012 6 10 0.00 0.00
11:16 am 11:16 Cloudy 63 17 N/A N/A NNW 12 19 29.88 1012 10 16 0.00 0.00
11:56 am 11:56 Cloudy with Light Rain 63 17.2 63 17.2 100 100 NNW 7 11 29.87 1012 10 16 0.00 0.00
12:56 pm 12:56 Mostly Cloudy 69 20.6 64 17.8 84 84 NNW 12 19 29.87 1012 10 16 0.00 0.00
1:56 pm 13:56 Cloudy 71 21.7 60 15.6 68 68 NW 12 19 29.86 1011 10 16 0.00 0.00
2:56 pm 14:56 Cloudy 70 21.1 59 15 68 68 NW 12 19 29.85 1011 10 16 0.00 0.00
3:56 pm 15:56 Mostly Sunny 73 22.8 58 14.4 59 59 NW 12 19 29.83 1010 10 16 0.00 0.00
4:56 pm 16:56 Mostly Sunny 74 23.3 56 13.3 54 54 NW 13 20 29.84 1011 10 16 0.00 0.00
5:56 pm 17:56 Sunny 74 23.3 54 12.2 50 50 NW 9 15 29.84 1011 10 16 0.00 0.00
6:56 pm 18:56 Sunny 73 22.8 55 12.8 53 53 NNW 6 9 29.84 1010 10 16 0.00 0.00
7:56 pm 19:56 Mostly Sunny 71 21.7 58 14.4 63 63 NNW 5 7 29.86 1011 10 16 0.00 0.00
8:56 pm 20:56 Mostly Cloudy 68 20 57 13.9 68 68 NNW 3 6 29.87 1011 10 16 0.00 0.00
9:56 pm 21:56 Clear 65 18.3 60 15.6 84 84 Calm 29.88 1012 10 16 0.00 0.00
10:56 pm 22:56 Clear 63 17.2 61 16.1 93 93 Calm 29.90 1013 10 16 0.00 0.00
11:56 pm 23:56 Clear 61 16 N/A N/A Calm 29.91 1013 10 16 0.00 0.00

Powered by AerisWeather